Theta_e
338 345 351 353 354 354 353 354 353 353 351 349 348 345 345 345 346 348 348 348 347 344 348 349 350 350 349 346 346 345 345 345 345 345 346 346 345 343 343 341 341 336 339
342 347 349 352 354 353 353 353 352 351 350 347 346 345 344 344 344 344 345 346 344 341 344 348 349 349 348 346 345 344 342 343 343 343 343 344 344 342 343 342 343 337 340
343 347 349 350 353 353 352 351 350 349 348 346 346 345 344 343 343 342 343 344 343 340 340 345 346 345 344 344 344 343 343 343 342 341 340 335 337 342 341 342 342 340 339
345 347 348 347 351 352 351 350 349 349 348 346 345 344 343 342 341 341 340 341 341 339 340 340 342 341 340 339 339 338 336 335 334 337 337 338 338 342 340 341 340 340 339
345 347 346 346 351 351 350 349 349 348 348 347 344 342 341 340 340 339 341 341 340 336 337 338 339 338 337 336 335 334 334 334 331 332 335 337 338 341 342 338 336 339 340
343 346 343 347 350 350 349 348 348 348 347 345 343 340 338 338 341 342 340 340 338 337 337 337 336 335 334 333 332 331 332 333 328 330 331 334 333 341 340 338 336 335 337
342 344 345 345 347 348 348 348 347 347 346 344 343 342 341 339 341 341 340 338 337 336 335 335 335 334 333 333 333 332 332 331 324 327 328 330 333 339 337 337 339 336 335
342 344 344 337 340 343 345 346 346 345 345 344 343 342 342 341 341 341 340 340 339 338 337 336 336 335 333 331 330 330 330 328 322 324 327 328 336 338 336 336 338 338 337
343 343 342 342 339 335 339 340 341 343 343 342 342 341 340 339 340 340 340 340 338 336 335 334 333 333 332 332 331 330 328 327 320 325 329 329 336 335 335 335 336 337 337
342 343 340 341 341 340 341 334 335 337 338 339 338 335 333 334 335 335 334 337 339 336 336 336 335 335 333 332 331 329 326 326 324 326 327 329 338 337 336 336 336 335 336
312 332 340 340 339 339 341 335 330 331 333 333 332 328 327 332 333 331 330 334 337 337 337 336 335 334 332 329 328 326 324 323 323 322 324 330 336 336 335 335 335 336 336
304 308 310 332 339 339 341 339 338 335 335 335 334 332 332 331 331 332 327 328 332 332 335 336 334 330 325 319 317 317 315 319 316 317 319 329 332 331 331 331 331 332 333
303 304 307 310 314 336 339 338 338 337 337 337 333 331 332 331 328 328 327 327 326 323 328 330 327 322 318 313 310 308 308 312 309 310 315 324 326 326 328 328 328 329 330
301 302 305 308 309 313 337 337 336 334 334 335 335 332 330 326 326 325 325 325 324 325 324 324 321 320 312 308 307 305 304 307 306 308 311 316 319 320 324 326 327 327 327
298 301 304 305 306 309 316 330 333 334 334 334 334 335 332 327 325 326 326 326 324 323 322 321 320 318 310 306 304 303 302 302 307 309 310 316 322 319 322 324 324 326 328
296 298 301 303 305 307 310 312 322 334 334 333 333 333 333 330 326 326 327 327 325 323 322 322 321 314 309 305 303 303 302 301 306 307 308 310 320 323 324 325 326 325 324
294 296 298 301 302 303 305 310 312 317 332 334 333 332 331 329 328 326 327 327 326 325 321 321 319 313 309 304 302 302 303 302 301 305 306 307 310 317 321 322 322 322 321
293 293 295 298 300 301 302 305 308 312 318 331 333 333 332 331 330 327 327 327 326 325 325 324 319 313 307 303 302 303 302 302 301 304 303 304 305 307 313 316 316 318 318
292 293 293 295 295 298 300 302 304 308 310 314 321 332 332 332 331 329 327 326 324 325 325 321 312 311 306 304 303 302 302 301 301 303 302 301 302 302 302 311 312 314 315
290 291 292 293 294 295 298 300 300 302 305 312 315 318 329 332 331 329 327 326 324 323 321 316 314 310 307 304 303 302 302 300 299 299 299 300 301 299 299 300 299 303 312
288 288 289 291 292 293 294 296 297 296 301 303 309 308 310 321 330 329 328 326 324 322 320 317 314 309 304 304 302 300 301 300 298 298 298 298 298 298 298 297 296 298 303
287 288 288 289 290 291 293 294 296 297 299 301 301 304 307 309 312 327 328 326 324 322 320 316 313 305 304 304 301 299 296 297 298 298 297 297 296 297 297 297 296 297 297
286 286 287 288 289 289 291 293 294 295 296 296 298 299 301 305 309 311 327 327 325 323 320 318 316 311 305 302 302 300 294 293 294 295 296 296 295 294 295 295 296 296 296
286 287 287 288 288 289 290 290 291 291 290 294 296 298 299 301 303 307 313 326 326 324 322 319 318 315 313 303 301 301 300 298 294 292 294 295 294 294 294 294 294 295 295
285 285 286 287 287 288 288 289 289 290 291 292 295 295 296 298 301 304 308 313 323 324 322 321 318 314 313 311 304 299 298 297 297 293 292 292 293 293 294 294 294 294 294
284 285 286 286 286 287 287 288 287 288 289 289 290 292 294 296 298 299 301 303 311 316 320 320 318 314 312 313 308 307 302 299 295 293 291 291 291 291 292 293 293 293 293
Wind_Speed
10 8 15 16 17 16 16 16 16 15 15 15 14 14 14 15 15 13 15 14 13 13 13 15 15 14 16 15 15 16 15 15 13 13 13 14 13 14 14 13 11 8 14
12 11 15 16 16 14 17 16 15 15 14 15 15 14 14 13 14 15 13 13 12 12 11 14 16 14 14 14 13 14 14 12 11 10 9 11 12 13 13 11 10 10 13
14 11 12 15 15 14 16 15 15 14 14 15 15 15 13 13 12 12 13 13 11 13 11 12 15 13 12 12 12 12 11 9 8 8 9 4 5 13 11 10 10 11 11
14 11 11 13 15 17 16 15 15 14 14 14 15 14 14 13 12 11 12 10 11 11 12 11 12 11 10 10 9 9 8 6 5 3 3 3 5 11 10 9 8 8 9
12 10 9 12 15 16 15 14 14 14 13 13 13 13 13 13 12 12 10 10 10 12 12 11 10 10 9 8 7 7 7 6 6 5 3 2 4 6 7 7 7 6 6
9 8 8 12 15 15 14 13 13 14 13 13 12 13 13 13 12 11 12 12 11 11 11 11 10 9 8 7 6 6 7 10 6 6 5 5 5 6 6 5 5 5 4
7 7 6 10 12 12 13 13 12 12 13 13 12 12 12 13 12 12 13 12 12 11 11 11 10 9 7 6 6 6 8 8 6 5 5 4 4 5 4 2 3 3 3
11 8 6 8 10 10 10 10 11 11 11 11 12 13 13 12 12 12 12 12 12 11 10 9 9 8 7 6 5 5 5 7 5 4 4 2 4 4 3 3 3 2 1
10 10 6 6 7 8 10 7 7 8 9 9 10 10 11 10 10 10 10 10 11 10 10 9 8 7 5 4 3 5 5 7 5 3 3 1 2 1 3 3 3 4 4
4 8 8 7 7 5 6 12 8 8 7 8 8 9 7 7 7 8 8 9 10 10 10 8 7 5 3 2 2 3 5 6 4 5 3 1 4 4 4 5 3 3 4
19 14 0 7 7 7 8 7 9 9 8 7 6 7 7 4 5 7 6 8 9 10 10 8 6 4 2 2 4 4 5 1 4 2 2 4 4 5 4 4 5 6 7
22 19 16 14 6 8 6 7 5 6 5 5 4 6 4 5 4 5 5 8 8 8 8 8 7 5 2 1 2 4 2 3 4 3 1 5 4 3 3 2 2 3 4
17 16 20 18 19 4 6 6 4 4 3 5 7 5 4 4 4 3 3 3 4 6 3 4 3 2 2 1 1 3 3 4 3 2 2 3 3 1 2 2 2 3 3
20 21 20 18 18 17 7 5 7 5 6 5 7 7 4 3 4 4 3 4 4 3 5 4 3 3 3 2 3 4 4 3 2 1 1 0 0 2 3 3 3 3 3
22 21 19 18 18 16 14 8 3 5 6 8 8 10 7 5 5 4 4 5 4 4 4 4 4 4 4 4 2 3 4 4 4 1 1 2 0 4 5 5 5 5 5
19 20 19 20 18 16 12 13 10 5 5 6 6 8 12 8 7 6 6 6 6 5 4 4 5 5 5 4 4 3 4 3 5 3 1 2 4 5 0 3 3 3 5
17 18 21 19 19 18 17 12 9 10 8 5 7 8 11 10 10 9 8 7 7 6 6 4 4 4 3 3 4 3 3 4 3 4 3 2 2 6 7 4 3 4 4
19 20 19 17 21 19 17 13 10 10 10 6 5 6 11 11 12 10 8 8 8 6 6 6 6 4 4 4 4 4 3 3 4 5 4 3 2 2 5 5 3 3 4
18 19 21 20 21 20 17 13 13 12 9 9 9 6 8 11 10 10 9 9 7 7 7 7 3 4 5 4 3 3 2 3 4 3 5 5 4 3 2 4 4 2 4
18 17 19 17 21 20 14 13 10 11 11 9 10 11 15 9 11 9 8 9 9 7 7 5 5 4 3 4 3 2 2 2 2 4 5 3 5 5 4 3 2 1 2
18 19 20 19 20 16 15 16 15 14 11 12 12 16 17 17 9 11 10 9 8 10 11 11 6 6 2 4 4 1 2 2 4 4 4 4 5 5 5 4 3 2 2
16 17 18 18 18 15 12 12 11 11 8 8 11 14 15 17 16 12 10 10 12 9 9 10 9 4 3 8 4 2 3 3 4 5 4 4 6 4 5 6 5 5 4
15 15 15 16 16 15 16 11 11 10 10 11 14 14 17 19 17 19 13 11 11 12 11 12 12 14 8 8 7 6 3 6 2 2 5 4 5 4 4 5 6 5 5
10 12 13 14 15 15 16 14 15 12 14 12 13 13 14 18 19 18 19 15 14 11 13 13 13 13 10 10 5 7 2 5 5 3 2 4 5 6 6 4 5 5 5
7 8 10 13 14 15 15 15 12 12 11 11 11 17 16 15 17 18 20 21 15 11 14 15 14 15 12 12 10 4 4 3 1 3 3 4 3 4 5 6 6 5 6
7 8 8 11 13 14 14 15 15 15 15 14 16 14 13 13 12 16 19 17 18 13 12 13 16 17 15 15 13 11 10 9 6 5 3 3 3 4 4 5 6 5 5
Wind_Direction
162 163 144 147 141 147 146 132 127 124 122 119 115 111 107 103 96 91 98 99 99 99 87 94 94 96 100 98 98 97 97 93 92 92 89 87 92 85 81 75 66 65 72
144 153 143 149 148 149 128 131 132 126 126 126 122 118 113 111 107 99 98 96 96 101 101 85 86 83 89 100 98 98 99 99 99 92 87 93 95 89 85 83 82 78 74
145 149 147 148 147 135 131 134 128 131 133 130 126 122 117 112 110 107 100 103 110 108 111 86 89 88 94 96 96 97 95 92 98 92 101 91 92 100 93 87 83 83 83
143 148 148 144 147 139 137 137 137 136 135 133 130 128 126 124 121 119 113 111 114 118 109 107 97 95 89 88 89 88 85 71 36 125 128 128 103 97 95 94 80 85 84
136 142 143 141 141 139 140 140 138 136 136 133 133 131 130 130 132 130 129 115 120 122 121 116 112 106 100 93 83 74 70 47 35 126 103 56 109 94 88 82 81 84 82
124 127 145 139 143 142 141 140 140 139 137 136 135 135 134 137 134 131 117 116 124 126 126 126 120 111 98 84 70 54 42 42 70 82 83 52 68 87 92 92 90 89 78
109 117 139 132 137 142 142 142 143 143 142 141 139 138 134 137 137 133 130 133 135 132 130 130 126 118 105 84 58 41 39 44 101 94 83 63 60 84 76 79 111 96 102
129 133 127 128 134 141 141 142 143 145 146 146 147 144 144 144 143 142 144 144 139 136 134 130 125 122 116 107 93 70 54 57 89 100 88 73 59 91 77 64 82 117 98
137 140 137 141 145 153 144 126 136 141 144 149 151 151 151 152 147 143 140 145 147 142 135 132 130 127 123 116 94 70 59 58 119 126 113 56 21 103 101 102 110 114 105
113 151 152 153 155 161 162 149 156 153 151 156 158 160 155 152 154 151 149 153 150 146 140 137 134 131 123 94 46 50 50 73 129 127 109 103 79 85 88 84 102 126 128
11 355 179 162 163 158 160 168 163 158 158 160 159 153 154 165 165 162 168 163 156 152 153 153 152 146 119 29 16 15 50 48 121 58 120 117 96 101 85 83 87 88 87
10 1 9 336 193 158 166 163 183 172 175 173 180 177 177 172 178 177 174 170 166 166 164 165 166 160 146 3 353 23 42 92 103 113 78 83 101 116 118 96 75 80 92
5 5 7 353 356 250 177 166 180 171 174 180 176 181 188 180 183 181 181 182 174 178 181 185 183 176 207 188 103 82 68 86 93 90 47 84 91 110 166 155 142 117 99
9 9 3 1 359 356 312 188 185 181 175 178 186 185 189 198 198 192 182 190 190 184 189 192 200 202 185 170 161 120 106 115 119 110 4 94 330 275 233 203 182 154 137
13 7 4 6 357 353 356 341 256 210 194 188 188 187 183 194 207 191 198 187 196 190 194 196 193 204 189 179 148 141 132 134 141 132 100 50 281 245 232 224 214 176 124
10 8 4 7 0 358 354 350 347 311 237 209 205 198 196 194 196 198 200 204 201 196 199 202 192 187 203 175 166 157 153 163 157 156 124 25 65 50 155 159 150 150 159
10 6 9 4 2 2 0 344 352 344 313 247 211 211 204 202 202 195 196 205 205 201 201 202 206 176 176 171 176 182 173 166 173 166 159 145 54 62 66 108 124 159 154
11 11 7 8 4 1 0 351 347 348 338 306 257 233 215 213 207 194 198 203 198 195 202 202 185 179 188 183 175 197 187 177 171 177 166 161 143 65 72 113 132 158 158
13 10 10 7 8 1 356 355 352 347 339 341 340 295 240 220 217 213 202 203 194 196 203 192 166 168 179 188 178 165 192 196 175 160 179 173 175 151 126 124 88 63 158
16 13 14 10 5 4 359 353 354 356 347 343 338 342 307 235 222 214 223 217 188 195 200 178 173 173 162 162 129 126 219 223 214 183 187 180 179 173 163 140 101 65 149
18 15 14 10 6 6 2 359 355 352 344 343 347 340 339 337 249 224 216 213 206 198 200 189 163 178 143 137 107 33 292 258 233 220 192 187 180 183 176 172 179 165 167
15 13 13 11 8 9 3 358 350 342 344 336 340 341 344 335 326 283 230 221 209 207 206 192 180 150 153 171 147 119 219 276 243 219 213 196 192 175 181 182 186 180 166
14 8 8 6 7 9 4 353 353 351 353 349 350 343 340 340 329 336 277 227 219 209 208 204 195 187 177 191 196 154 146 225 152 179 220 208 192 187 190 177 186 191 174
6 4 3 2 3 4 1 2 4 0 353 346 336 333 335 337 336 324 330 274 223 220 212 209 206 199 181 191 199 233 227 148 183 203 238 223 204 196 189 193 178 187 178
354 357 356 359 1 0 0 2 358 354 345 339 338 337 337 336 339 336 337 328 300 229 223 213 209 206 203 191 197 153 175 182 150 140 177 205 239 213 198 188 182 179 178
346 353 353 2 356 355 357 356 355 349 342 341 344 341 339 334 334 335 335 327 317 309 276 228 210 208 204 211 198 206 190 190 185 162 153 182 201 222 187 192 185 184 174